Probability
0 0 0 0 0 0 0 0 0 0 0 0 0 0 0 0 0 0 0 0 0 0 0 0 0 0 0 0 0 0 0 0 0 0 0 0 0 0 0 0 0 0 0 0 0 0 0 0 0
0 0 0 0 0 0 0 0 0 0 0 0 0 0 0 0 0 0 0 0 0 0 0 0 0 0 0 0 0 0 0 0 0 0 0 0 0 0 0 0 0 0 0 0 0 0 0 0 0
0 0 0 0 0 0 0 0 0 0 0 0 0 0 0 0 0 0 0 0 0 0 0 0 0 0 0 0 0 0 0 0 0 0 0 0 0 0 0 0 0 0 0 0 0 0 0 0 0
0 0 0 0 0 0 0 0 0 0 0 0 0 0 0 0 0 0 0 0 0 0 0 0 0 0 0 0 0 0 0 0 0 0 0 0 0 0 0 0 0 0 0 0 0 0 0 0 0
0 0 0 0 0 0 0 0 0 0 0 0 0 0 0 0 0 0 0 0 0 0 0 0 0 0 0 0 0 0 0 0 0 0 0 0 0 0 0 0 0 0 0 0 0 0 0 0 0
0 0 0 0 0 0 0 0 0 0 0 0 0 0 0 0 0 0 0 0 0 0 0 0 0 0 0 0 0 0 0 0 0 0 0 0 0 0 0 0 0 0 0 0 0 0 0 0 0
0 0 0 0 0 0 0 0 0 0 0 0 0 0 0 0 0 0 0 0 0 0 0 0 0 0 0 0 0 0 0 0 0 0 0 0 0 0 0 0 0 0 0 0 0 0 0 0 0
0 0 0 0 0 0 0 0 0 0 0 0 0 0 0 0 0 0 0 0 0 0 0 0 0 0 0 0 0 0 0 0 0 0 0 0 0 0 0 0 0 0 0 0 0 0 0 0 0
0 0 0 0 0 0 0 0 0 0 0 0 0 0 0 0 0 0 0 0 0 0 0 0 0 0 0 0 0 0 0 0 0 0 0 0 0 0 0 0 0 0 0 0 0 0 0 0 0
0 0 0 0 0 0 0 0 0 0 0 0 0 0 0 0 0 0 0 0 0 0 0 0 0 0 0 0 0 0 0 0 0 0 0 0 0 0 0 0 0 0 0 0 0 0 0 0 0
0 0 0 0 0 0 0 0 0 0 0 0 0 0 0 0 0 0 0 0 0 0 0 0 0 0 0 0 0 0 0 0 1 1 0 0 0 0 0 0 0 0 0 0 0 0 0 0 0
0 0 0 0 0 0 0 0 0 0 0 0 0 0 0 0 0 0 0 0 0 0 0 0 0 0 0 0 0 1 1 1 1 1 0 0 0 0 0 0 0 0 0 0 0 0 0 0 0
0 0 0 0 0 0 0 0 0 0 0 0 0 0 0 0 0 0 0 0 0 0 0 0 0 0 0 0 0 1 1 1 1 1 0 0 0 0 0 0 0 0 0 0 0 0 0 0 0
0 0 0 0 0 0 0 0 0 0 0 0 0 0 0 0 0 0 0 0 0 0 0 0 0 0 0 0 0 1 1 0 0 0 0 0 0 0 0 0 0 0 0 0 0 0 0 0 0
0 0 0 0 0 0 0 0 0 0 0 0 0 0 0 0 0 0 0 0 0 0 0 0 0 0 0 0 0 0 1 0 0 0 0 0 0 0 0 0 0 0 0 0 0 0 0 0 0
0 0 0 0 0 0 0 0 0 0 0 0 0 0 0 0 0 0 0 0 0 0 0 0 0 0 0 0 0 0 0 0 0 0 0 0 0 0 0 0 0 0 0 0 0 0 0 0 0
0 0 0 0 0 0 0 0 0 0 0 0 0 0 0 0 0 0 0 0 0 0 0 0 0 0 0 0 0 0 0 0 0 0 0 0 0 0 0 0 0 0 0 0 0 0 0 0 0
0 0 0 0 0 0 0 0 0 0 0 0 0 0 0 0 0 0 0 0 0 0 0 0 0 0 0 0 0 0 0 0 0 0 0 0 0 0 0 0 0 0 0 0 0 0 0 0 0
0 0 0 0 0 0 0 0 0 0 0 0 0 0 0 0 0 0 0 0 0 0 0 0 0 0 0 0 0 0 0 0 0 0 0 0 0 0 0 0 0 0 0 0 0 0 0 0 0
0 0 0 0 0 0 0 0 0 0 0 0 0 0 0 0 0 0 0 0 0 0 0 0 0 0 0 0 0 0 0 0 0 0 0 0 0 0 0 0 0 0 0 0 0 0 0 0 0
0 0 0 0 0 0 0 0 0 0 0 0 0 0 0 0 0 0 0 0 0 0 0 0 0 0 0 0 0 0 0 0 0 0 0 0 0 0 0 0 0 0 0 0 0 0 0 0 0
0 0 0 0 0 0 0 0 0 0 0 0 0 0 0 0 0 0 0 0 0 0 0 0 0 0 0 0 0 0 0 0 0 0 0 0 0 0 0 0 0 0 0 0 0 0 0 0 0
0 0 0 0 0 0 0 0 0 0 0 0 0 0 0 0 0 0 0 0 0 0 0 0 0 0 0 0 0 0 0 0 0 0 0 0 0 0 0 0 0 0 0 0 0 0 0 0 0
0 0 0 0 0 0 0 0 0 0 0 0 0 0 0 0 0 0 0 0 0 0 0 0 0 0 0 0 0 0 0 0 0 0 0 0 0 0 0 0 0 0 0 0 0 0 0 0 0
0 0 0 0 0 0 0 0 0 0 0 0 0 0 0 0 0 0 0 0 0 0 0 0 0 0 0 0 0 0 0 0 0 0 0 0 0 0 0 0 0 0 0 0 0 0 0 0 0
0 0 0 0 0 0 0 0 0 0 0 0 0 0 0 0 0 0 0 0 0 0 0 0 0 0 0 0 0 0 0 0 0 0 0 0 0 0 0 0 0 0 0 0 0 0 0 0 0
0 0 0 0 0 0 0 0 0 0 0 0 0 0 0 0 0 0 0 0 0 0 0 0 0 0 0 0 0 0 0 0 0 0 0 0 0 0 0 0 0 0 0 0 0 0 0 0 0
0 0 0 0 0 0 0 0 0 0 0 0 0 0 0 0 0 0 0 0 0 0 0 0 0 0 0 0 0 0 0 0 0 0 0 0 0 0 0 0 0 0 0 0 0 0 0 0 0
0 0 0 0 0 0 0 0 0 0 0 0 0 0 0 0 0 0 0 0 0 0 0 0 0 0 0 0 0 0 0 0 0 0 0 0 0 0 0 0 0 0 0 0 0 0 0 0 0
0 0 0 0 0 0 0 0 0 0 0 0 0 0 0 0 0 0 0 0 0 0 0 0 0 0 0 0 0 0 0 0 0 0 0 0 0 0 0 0 0 0 0 0 0 0 0 0 0
Wind_Speed
3 4 2 2 2 3 5 4 2 2 2 2 2 1 4 6 6 6 4 3 3 8 12 12 10 12 12 12 11 11 11 11 11 11 10 10 11 11 12 12 11 11 11 12 12 12 11 11 10
4 3 1 1 2 5 5 3 3 3 3 1 1 1 2 6 5 4 4 4 3 8 11 12 11 11 12 12 11 10 10 11 10 10 10 10 11 11 11 11 10 10 10 11 11 11 11 11 10
1 2 1 1 1 3 6 3 3 2 1 1 2 2 3 5 5 4 5 3 4 8 10 10 9 10 11 11 10 9 9 9 9 10 10 10 10 10 10 10 10 10 10 10 11 11 11 11 10
2 1 1 1 5 4 3 3 1 1 2 1 0 4 5 6 6 6 4 4 4 6 9 10 8 9 11 11 10 9 9 8 8 8 9 9 10 10 10 9 9 9 9 10 10 11 11 10 10
1 1 2 4 5 3 1 1 1 0 2 2 1 4 6 6 7 7 5 4 4 5 7 8 7 8 9 10 10 9 8 8 8 7 8 9 10 9 9 9 9 9 9 10 10 11 11 10 10
1 1 3 5 5 3 2 1 1 1 2 2 1 4 6 7 10 8 6 5 5 5 4 5 5 5 7 9 9 8 8 8 7 6 7 8 9 9 9 9 8 8 9 9 10 10 11 11 11
0 1 2 5 5 4 2 0 1 2 3 3 1 3 6 8 10 7 7 7 8 6 3 1 4 6 6 7 8 8 8 7 7 6 6 7 8 9 9 8 8 8 8 9 9 10 10 11 11
1 2 4 5 6 5 2 2 1 1 3 3 2 1 4 8 9 4 6 8 8 8 6 3 2 4 6 7 7 7 7 7 7 6 6 7 8 8 8 8 8 8 8 8 8 9 9 10 11
1 3 4 6 6 5 3 3 2 0 0 3 4 6 7 9 6 4 5 6 7 8 7 5 4 3 4 6 6 7 7 6 6 6 6 6 6 6 6 7 8 9 8 7 7 8 8 6 8
1 3 2 2 3 5 3 1 1 2 2 3 5 6 7 8 8 8 8 8 8 9 8 6 5 4 4 4 5 5 5 5 5 4 5 4 3 3 4 7 7 8 8 7 8 7 5 3 4
1 2 2 3 3 3 3 2 1 3 3 1 2 4 7 8 9 9 8 8 8 8 8 7 6 5 4 3 3 3 2 2 3 3 3 2 3 3 3 3 4 4 5 4 5 3 2 3 3
2 2 2 2 3 4 3 3 3 2 3 6 5 5 5 8 9 9 9 9 9 9 9 8 6 4 3 3 3 2 2 1 1 1 1 2 2 2 3 2 2 2 1 2 2 2 2 2 2
3 2 2 2 3 3 3 4 2 3 5 5 6 7 8 8 8 7 7 7 8 9 10 9 7 3 1 3 2 2 2 2 2 2 2 1 1 1 2 1 1 1 1 0 1 1 1 1 1
1 2 3 4 5 4 5 3 4 4 6 5 6 7 7 8 8 8 9 9 10 10 10 9 7 4 3 3 4 4 4 5 6 6 7 6 3 2 2 2 1 2 1 1 1 1 0 1 1
1 4 6 4 4 4 6 4 3 6 6 5 5 5 6 7 8 9 9 9 9 9 9 9 8 8 9 9 9 7 8 8 8 8 9 9 7 6 5 4 4 3 3 3 2 3 2 2 2
2 4 6 3 3 4 7 6 5 6 6 4 3 3 4 6 7 8 8 8 8 8 8 9 8 11 13 12 12 10 10 10 9 9 9 12 11 10 7 6 6 5 4 4 3 3 2 2 3
5 7 7 4 3 4 7 5 6 4 5 4 3 2 3 4 6 8 8 8 8 7 7 8 10 12 13 14 13 12 11 11 9 9 9 11 12 11 9 7 6 6 5 5 4 3 3 3 4
8 8 7 7 2 5 7 6 6 3 4 5 4 3 3 4 5 6 7 7 7 7 7 8 9 11 12 11 11 10 12 11 10 10 11 12 11 11 9 8 9 7 6 6 5 5 4 4 4
5 7 8 5 1 4 9 10 7 5 5 6 6 5 4 4 4 5 6 7 7 8 9 9 9 7 6 6 7 8 9 9 10 10 13 13 12 12 11 8 9 8 8 8 8 5 6 6 5
7 9 10 5 1 4 7 12 7 6 6 5 6 7 6 6 5 5 6 7 8 8 9 9 9 9 8 8 7 8 9 9 9 9 12 14 13 13 10 11 9 9 8 11 11 9 6 5 7
13 15 15 8 2 3 6 12 11 6 5 5 6 6 7 7 7 5 6 6 7 8 8 8 9 10 11 11 10 9 8 8 8 10 10 12 13 13 13 13 11 11 10 10 11 10 10 7 7
13 11 11 9 7 8 6 10 7 7 8 9 9 9 9 8 7 6 6 6 7 7 7 8 10 10 10 9 9 11 10 9 9 8 9 11 13 13 13 13 12 11 10 10 10 10 8 9 7
6 4 6 7 10 9 7 10 7 6 10 13 14 13 12 10 8 7 6 5 6 6 7 8 10 11 11 11 12 13 12 11 9 9 10 10 10 11 12 11 10 10 9 10 10 9 9 7 7
10 8 5 3 5 11 13 14 10 9 10 11 16 16 14 11 9 7 6 6 6 7 7 8 10 11 10 11 12 14 15 12 11 10 9 8 7 8 11 10 9 9 8 8 8 8 9 7 7
10 9 6 6 8 10 7 11 11 4 5 9 18 19 17 13 11 10 9 8 8 8 8 8 11 11 10 11 12 12 13 12 11 9 8 7 6 6 8 7 8 7 7 7 7 7 7 7 7
16 16 11 11 9 6 6 12 7 3 3 4 12 17 17 14 12 11 10 9 9 9 9 9 10 11 10 11 11 10 10 8 7 8 7 7 5 5 6 6 6 6 6 6 6 5 5 5 5
13 13 6 3 2 3 9 7 6 4 5 7 13 18 19 17 15 13 12 11 10 10 10 10 11 11 10 10 10 10 9 9 8 8 7 5 5 4 5 5 5 5 6 6 5 4 5 5 5
5 10 7 8 8 9 7 8 8 13 15 13 16 20 21 19 16 15 13 12 11 10 10 10 10 11 11 10 9 7 8 8 8 7 6 6 5 4 4 4 4 4 5 5 5 5 5 6 6
11 10 9 9 6 7 7 8 6 10 15 19 20 21 22 21 19 17 14 13 12 11 11 11 10 11 10 10 9 9 8 7 7 6 6 5 4 3 3 3 3 4 4 5 5 5 6 7 7
12 14 14 11 9 7 6 6 3 5 9 15 17 18 20 20 19 17 16 15 14 14 13 12 12 11 11 10 9 9 8 7 7 6 5 4 4 3 2 1 2 3 4 5 5 6 7 7 8
Wind_Direction
355 344 306 265 212 108 89 81 61 79 84 46 11 357 45 45 35 53 44 108 141 158 162 161 157 152 147 142 140 139 137 134 131 126 122 118 112 105 99 90 81 72 66 62 57 53 48 43 41
356 325 258 261 213 128 105 101 98 62 35 37 129 139 81 73 48 57 60 114 145 158 165 165 157 155 150 146 145 145 141 138 135 131 126 122 115 107 101 92 82 72 65 60 54 47 42 37 33
56 340 302 190 110 105 113 104 86 52 41 240 125 73 41 48 47 47 31 126 141 157 169 160 162 160 154 151 151 151 147 143 140 136 133 127 117 108 100 91 80 70 63 58 52 44 36 32 28
256 186 201 169 102 72 73 70 36 109 122 68 102 108 83 45 19 14 26 128 129 152 171 162 171 166 160 157 158 157 154 150 146 144 140 130 121 111 102 91 80 69 62 57 49 41 34 30 26
280 242 159 125 106 91 65 10 302 142 96 62 33 99 86 51 30 35 58 98 101 133 167 169 178 176 166 164 164 163 162 159 155 151 147 136 128 118 108 95 82 70 64 58 50 42 36 31 27
119 233 193 161 132 117 126 354 223 132 104 86 64 104 86 57 31 33 52 70 70 95 141 167 177 190 178 173 171 169 170 168 164 162 157 148 139 127 113 97 84 73 66 61 54 46 40 35 31
63 178 171 161 153 152 123 155 170 127 124 72 354 129 119 59 21 28 57 64 62 63 79 128 197 201 197 189 184 179 179 178 175 173 168 157 147 135 120 105 90 78 71 67 61 53 46 40 36
31 142 143 173 177 160 123 150 87 344 78 43 328 154 101 10 350 29 67 62 58 49 41 22 302 232 216 206 197 191 190 191 187 183 172 160 152 142 129 119 103 89 80 76 72 65 57 48 43
247 203 189 189 186 157 142 156 115 352 71 85 58 51 20 346 354 42 59 50 41 34 23 6 335 284 245 227 203 198 199 201 200 192 175 174 174 157 140 120 111 102 95 90 88 82 70 61 53
222 223 186 163 176 149 148 156 46 196 180 140 121 83 25 20 31 41 35 22 15 7 2 353 334 303 266 237 220 211 202 205 215 209 188 185 171 143 129 126 125 120 115 111 111 105 90 48 37
198 211 144 175 177 159 165 184 199 244 211 60 359 24 21 29 37 36 30 17 2 348 349 344 330 301 265 232 218 205 193 203 216 219 203 179 159 141 147 143 141 138 135 130 136 136 70 49 39
183 180 198 172 158 178 192 185 186 244 47 48 47 48 39 39 36 27 16 6 357 354 352 345 335 305 254 226 206 195 171 176 198 175 174 164 151 161 166 159 161 161 150 149 154 136 118 86 58
208 191 207 218 200 226 217 216 192 131 100 89 79 67 52 44 36 31 18 12 5 359 353 350 345 336 218 184 164 140 116 92 70 48 39 54 123 143 138 132 142 135 70 100 128 139 146 147 53
207 242 251 241 221 209 204 186 169 138 129 103 78 63 51 43 29 25 19 12 5 358 352 351 8 37 87 103 94 73 64 61 55 47 37 37 42 63 91 90 76 63 50 41 15 36 10 338 340
232 278 266 225 210 196 174 183 168 135 145 114 84 69 55 44 34 27 15 7 3 356 356 8 26 55 74 77 73 63 58 58 54 47 41 42 44 51 59 58 49 41 42 45 40 31 12 351 335
190 251 255 194 185 173 206 215 123 152 173 140 107 84 66 52 40 29 17 13 9 7 16 29 47 65 72 74 71 66 61 60 54 48 45 44 46 51 57 56 50 46 49 48 48 32 21 9 344
214 237 241 237 186 184 219 221 133 157 185 166 143 115 95 79 49 30 22 20 19 21 34 51 63 74 79 80 77 72 66 61 55 50 46 46 48 52 59 57 52 51 52 48 46 40 27 11 349
213 216 228 232 180 204 223 220 158 152 192 181 164 152 131 93 46 26 26 28 36 43 54 66 73 82 89 87 83 77 68 62 57 52 48 48 49 52 59 57 49 47 49 42 34 43 40 20 341
215 211 231 233 165 232 240 244 213 180 196 193 182 168 149 112 68 48 43 44 53 57 61 67 75 81 92 92 87 81 72 65 61 55 50 50 50 52 54 56 50 47 48 40 29 23 31 23 350
208 225 241 246 205 249 261 259 237 205 213 206 189 173 158 141 118 76 60 58 59 61 65 69 72 78 81 88 89 87 92 77 70 64 56 53 53 52 53 54 53 48 48 42 32 25 22 27 14
222 231 239 237 161 227 276 262 225 196 193 190 190 176 165 153 136 111 84 72 69 63 62 71 76 80 86 96 102 107 100 91 75 66 61 53 55 57 57 55 54 50 48 44 36 27 27 22 27
227 224 234 225 230 244 225 269 225 192 200 202 193 186 174 162 151 133 115 93 79 73 75 80 83 83 87 96 103 104 99 93 84 79 74 66 59 58 58 58 56 54 51 48 41 36 29 27 23
219 145 191 215 233 249 216 252 251 177 219 208 195 188 178 170 161 147 129 109 95 90 90 91 90 87 90 96 101 100 99 100 101 95 85 76 66 59 57 56 57 55 51 47 43 40 36 33 28
132 109 96 130 210 245 219 227 251 208 212 188 184 185 180 173 166 155 140 132 117 108 104 105 101 95 96 99 100 105 109 112 109 100 93 82 73 63 56 55 55 52 49 43 37 36 36 30 26
172 163 183 204 215 237 178 220 243 209 178 182 180 180 178 174 172 168 163 155 142 131 122 119 114 108 108 107 106 108 111 111 108 104 96 91 79 68 57 54 53 49 45 39 32 31 27 21 14
194 197 197 209 219 207 179 228 242 119 134 178 179 174 174 178 180 178 174 167 157 149 142 136 128 124 123 118 114 113 113 110 106 103 102 95 87 77 68 60 56 49 40 31 24 21 15 2 353
180 213 209 143 88 240 220 237 256 170 187 176 175 177 183 185 185 184 180 178 171 165 160 153 145 139 136 132 128 125 123 120 119 116 110 103 98 92 77 64 53 43 33 21 10 5 359 345 338
210 170 160 196 200 229 232 222 215 196 200 185 186 189 188 187 187 187 186 184 181 175 168 164 159 153 150 147 142 138 136 133 133 131 123 116 109 98 81 60 44 31 20 8 359 348 344 335 330
171 184 202 198 212 210 234 228 208 199 188 188 194 193 189 188 189 189 189 187 183 180 178 175 173 167 165 161 156 153 151 149 146 140 134 127 118 103 81 52 27 12 2 353 344 339 332 327 323
212 201 190 191 208 215 239 243 133 196 191 191 191 190 190 191 191 191 189 186 187 187 186 185 183 182 178 172 169 166 162 162 160 152 145 141 135 121 93 47 8 355 345 340 333 328 325 321 319